小惑星A/2019 S4

A/2019 S4

English version
Home page
Updated on November 9, 2019

---------------------------------------------------------------------

・ プロフィール

発見日 2019年9月17日
発見光度 20.3等
発見者 Mt. Lemmon Survey

・ 軌道要素

Epoch 2020 Apr. 21.0 TT = JDT 2458960.5
T 2020 Apr. 8.00183 TT                                  Williams
q   3.4413570            (2000.0)            P               Q
z  +0.0040804      Peri.   71.37279     +0.17407014     -0.41761502
 +/-0.0001041      Node    63.17040     -0.12907732     -0.90748298
e   0.9859579      Incl.   92.02692     +0.97623697     -0.04552292
H   14.5
From 46 observations 2019 Sept. 17-Oct. 30, mean residual 0".4.

・ 光度変化

        H = 14.5  G = 0.15

---------------------------------------------------------------------

軌道要素はM.P.E.C. 2019-V116に掲載されたものです。
光度グラフはComet for Windowsで作成したものです。

---------------------------------------------------------------------

Copyright(C) Seiichi Yoshida (comet@aerith.net). All rights reserved.